Regional Weather Roundup
Issued by NWS

Home | Current Version | Previous Version | Graphics & Text | Print | Product List | Glossary On
Versions: 1 2 3 4 5 6 7 8 9 10 11 12 13 14 15 16 17 18 19 20 21 22 23 24 25 26 27 28 29 30 31 32 33 34 35 36 37 38 39 40 41 42 43 44 45 46 47 48 49 50
000
ASUS45 KABQ 042210
RWRNM
WEATHER ROUNDUP FOR NEW MEXICO
NATIONAL WEATHER SERVICE ALBUQUERQUE NM
400 PM MDT MON MAY 04 2015

NOTE: "FAIR" MEANS FEW OR NO CLOUDS BELOW 12,000 FEET AGL WITH NO
       SIGNIFICANT WEATHER OR OBSTRUCTIONS TO VISION.

      THIS PRODUCT IS RELEASED AS TWO VERSIONS.  ONE VERSION NEAR
      THE TOP OF THE HOUR CONTAINING PRELIMINARY DATA FROM ALBUQUERQUE
      AND OTHER STATIONS.  A FINAL VERSION WITH ADDITIONAL DATA IS
      ISSUED ABOUT 10 MINUTES AFTER THE HOUR.

NMZ501-503-504-510>518-042300-
NORTHWEST PLATEAU/NORTHCENTRAL MOUNTAINS

CITY           SKY/WX    TMP DP  RH WIND       PRES   REMARKS
FARMINGTON     LGT RAIN  64  44  48 NW9       29.93F
LOS ALAMOS     PTSUNNY   63  32  31 SE10G17   30.05S
SANTA FE       PTSUNNY   62  40  44 E15       29.97F
TAOS           PTSUNNY   57  34  41 SE25G35   30.04F
ANGEL FIRE     LGT RAIN  43  39  85 CALM      30.18F

$$
NMZ402-403-502-505>509-042300-
WESTCENTRAL MOUNTAINS/SOUTHWEST MOUNTAINS

CITY           SKY/WX    TMP DP  RH WIND       PRES   REMARKS
GALLUP         PTSUNNY   53  46  77 E8        30.01F
GRANTS         TSTM      55  44  67 W9        30.00F
SILVER CITY      N/A     73  34  23 S18       29.95S

$$
NMZ407-409-411-412-042300-
SOUTHERN DESERTS

CITY           SKY/WX    TMP DP  RH WIND       PRES   REMARKS
LORDSBURG      MOCLDY    75  43  31 SE8       29.86F
DEMING         CLOUDY    72  42  34 W29G43    29.87R
LAS CRUCES     MOSUNNY   82  34  18 S15       29.83F
HOLLOMAN AFB   MOSUNNY   78  41  26 SE18G25   29.82F
ALAMOGORDO     PTSUNNY   75  41  29 SE15G24   29.85F
T OR C         PTSUNNY   78  37  22 NW13      29.83F

$$
NMZ519>523-042300-
CENTRAL VALLEYS/CENTRAL HIGHLANDS

CITY           SKY/WX    TMP DP  RH WIND       PRES   REMARKS
ALBUQUERQUE    LGT RAIN  72  39  30 NE9       29.91F
DOUBLE EAGLE   PTSUNNY   63  41  45 SW14      29.96S
MORIARTY ARPT  MOCLDY    69  35  28 SE14G22   29.98F
CLINES CORNERS CLOUDY    63  34  33 SE17G24   30.01F
BELEN          MOCLDY    74  36  25 W12       29.90R
SOCORRO        FAIR      77  39  26 SW8       29.85F

$$
NMZ524>526-539-540-042300-
SOUTHCENTRAL MOUNTAINS

CITY           SKY/WX    TMP DP  RH WIND       PRES   REMARKS
RUIDOSO        MOSUNNY   57  48  72 SE14      30.07F

$$
NMZ527>531-042300-
NORTHEAST HIGHLANDS/NORTHEAST PLAINS

CITY           SKY/WX    TMP DP  RH WIND       PRES   REMARKS
LAS VEGAS      MOSUNNY   65  39  38 S9        30.05F
RATON          CLOUDY    56  48  74 N14       30.04F THUNDER
CLAYTON        LGT RAIN  55  51  86 E6        30.05F

$$
NMZ532>537-042300-
EASTCENTRAL PLAINS

CITY           SKY/WX    TMP DP  RH WIND       PRES   REMARKS
TUCUMCARI      MOSUNNY   73  52  47 VRB7      29.93F
CANNON AFB     HAIL      62  54  74 SE17      29.95S
CLOVIS AIRPORT CLOUDY    59  54  82 E16       29.97R

$$
NMZ028-029-538-042300-
SOUTHEAST PLAINS

CITY           SKY/WX    TMP DP  RH WIND       PRES   REMARKS
ROSWELL        CLOUDY    75  49  39 S5        29.89S
ARTESIA        CLOUDY    77  54  44 SE14      29.87F
CARLSBAD       PTSUNNY   79  53  40 SE15      29.83F
HOBBS          PTSUNNY   75  57  53 SE17G23   29.89F


$$



USA.gov is the U.S. government's official web portal to all federal, state and local government web resources and services.